Starlink 3533

operational
NORAD ID: 51715 Int'l Des: 2022-016 Owner: SPXS Country: US Constellation: starlink
LEOCIRCULAR

Starlink 3533について

説明を読み込み中...

リアルタイム位置

3D地球を読み込み中...

次回通過

高度履歴

Altitude vs Time

uPlot chart will show altitude changes over time

軌道要素

1 51715U 22016B 25354.24874723 -.00002207 00000-0 -12072-3 0 9994
2 51715 53.2188 325.7547 0001500 84.0024 276.1139 15.08815690212563
Epoch: Dec 20, 2025 • Age: 11 hours

現在のステータス

高度 557.5 km
速度 7.58 km/s
衛星直下点 -48.75°S, 75.65°W
打ち上げ日 Feb 21, 2022
運用期間 3.8 years
タイプ internet

技術仕様

分類 Payload
質量 297.00 kg
乾燥質量 275.00 kg
総質量 297.00 kg
長さ 0.20 m
直径 2.80 m
スパン 9.00 m
形状 Box + pan
製造者 SPXS
バスタイプ Starlink
フェーズステータス In Orbit
所有者/国 SPXS/US

大規模コンステレーション

Loading constellations...